Fairacres, NM

7:53 AM MDT on August 28, 2016 (GMT -0600)
Las Cruces International

Weather History for KLRU - October, 2013

Change the Weather History Date:

Thursday, October 10, 2013

  Actual Average Record
Temperature  
Mean Temperature 64 °F -  
Max Temperature 78 °F 76 °F 89 °F (2007)
Min Temperature 50 °F 53 °F 39 °F (2000)
Degree Days  
Heating Degree Days 1    
Growing Degree Days 14 (Base 50)    
Moisture  
Dew Point 38 °F    
Average Humidity 41    
Maximum Humidity 77    
Minimum Humidity 18    
Precipitation  
Precipitation 0.00 in - - ()
Sea Level Pressure  
Sea Level Pressure 29.94 in    
Wind  
Wind Speed 11 mph (WSW)    
Max Wind Speed 39 mph    
Max Gust Speed 52 mph    
Visibility 10 miles    
Events Thunderstorm    
Averages and records for this station are not official NWS values.
T = Trace of Precipitation, MM = Missing Value Source: NWS Daily Summary

Daily Weather History Graph

Daily Weather History Graph

Search for Another Location

Airport or City:

Trip Planner

Search our weather history database for the weather conditions in past years. The results will help you decide how hot, cold, wet, or windy it might be!

Date:

Astronomy

Oct. 10, 2013 Rise Set
Actual Time 7:07 AM MDT 6:40 PM MDT
Civil Twilight 6:43 AM MDT 7:05 PM MDT
Nautical Twilight 6:14 AM MDT 7:33 PM MDT
Astronomical Twilight 5:46 AM MDT 8:01 PM MDT
Moon 12:49 PM MDT (10/10) 11:33 PM MDT (10/10)
Length of Visible Light 12h 21m
Length of Day
11h 32m
Waxing Crescent, 36% of the Moon is Illuminated
Oct 10
Waxing Crescent
Oct 11
First Quarter
Oct 18
Full
Oct 26
Last Quarter
Nov 3
New

Hourly Weather History & Observations

Time (MDT) Temp. Dew Point Humidity Pressure Visibility Wind Dir Wind Speed Gust Speed Precip Events Conditions
12:15 AM 63.5 °F 42.1 °F 46% 29.95 in 10.0 mi SSW 6.9 mph - N/A   Clear
12:35 AM 61.9 °F 42.8 °F 50% 29.95 in 10.0 mi SW 6.9 mph - N/A   Scattered Clouds
12:55 AM 60.6 °F 42.3 °F 51% 29.95 in 10.0 mi SW 6.9 mph - N/A   Mostly Cloudy
1:15 AM 60.8 °F 41.9 °F 50% 29.95 in 10.0 mi WSW 5.8 mph - N/A   Scattered Clouds
1:35 AM 59.7 °F 42.3 °F 52% 29.96 in 10.0 mi WSW 5.8 mph - N/A   Clear
1:55 AM 60.1 °F 42.6 °F 53% 29.96 in 10.0 mi SW 5.8 mph - N/A   Clear
2:15 AM 57.9 °F 43.0 °F 58% 29.96 in 10.0 mi WSW 5.8 mph - N/A   Clear
2:35 AM 57.2 °F 43.5 °F 60% 29.96 in 10.0 mi SW 8.1 mph - N/A   Clear
2:55 AM 59.0 °F 43.2 °F 56% 29.96 in 10.0 mi SW 9.2 mph - N/A   Clear
3:15 AM 59.5 °F 44.6 °F 58% 29.95 in 10.0 mi SW 6.9 mph - N/A   Clear
3:35 AM 58.6 °F 44.6 °F 60% 29.95 in 10.0 mi SSW 4.6 mph - N/A   Clear
3:55 AM 57.7 °F 44.6 °F 62% 29.95 in 10.0 mi South 5.8 mph - N/A   Clear
4:15 AM 58.8 °F 43.7 °F 57% 29.94 in 10.0 mi South 6.9 mph - N/A   Clear
4:35 AM 58.3 °F 43.5 °F 58% 29.94 in 10.0 mi SSW 5.8 mph - N/A   Clear
4:55 AM 57.2 °F 43.3 °F 60% 29.94 in 10.0 mi SW 4.6 mph - N/A   Clear
5:15 AM 54.9 °F 43.7 °F 66% 29.94 in 10.0 mi Calm Calm - N/A   Clear
5:35 AM 53.4 °F 43.7 °F 70% 29.94 in 10.0 mi Calm Calm - N/A   Clear
5:55 AM 50.9 °F 44.1 °F 77% 29.93 in 10.0 mi Calm Calm - N/A   Clear
6:15 AM 54.3 °F 43.7 °F 67% 29.93 in 10.0 mi South 4.6 mph - N/A   Clear
6:35 AM 54.5 °F 44.2 °F 68% 29.94 in 10.0 mi WSW 3.5 mph - N/A   Clear
6:55 AM 53.2 °F 44.8 °F 73% 29.94 in 10.0 mi SSW 4.6 mph - N/A   Clear
7:15 AM 53.1 °F 44.8 °F 73% 29.94 in 10.0 mi SE 5.8 mph - N/A   Clear
7:35 AM 53.1 °F 45.1 °F 74% 29.94 in 10.0 mi South 4.6 mph - N/A   Clear
7:55 AM 54.0 °F 46.6 °F 76% 29.94 in 10.0 mi Calm Calm - N/A   Clear
8:15 AM 58.1 °F 46.8 °F 66% 29.95 in 10.0 mi South 4.6 mph - N/A   Clear
8:35 AM 61.9 °F 46.8 °F 58% 29.95 in 10.0 mi East 4.6 mph - N/A   Clear
8:55 AM 61.0 °F 46.4 °F 59% 29.95 in 10.0 mi Calm Calm - N/A   Clear
9:15 AM 66.7 °F 47.7 °F 50% 29.95 in 10.0 mi South 13.8 mph - N/A   Clear
9:35 AM 68.5 °F 46.0 °F 44% 29.95 in 10.0 mi South 15.0 mph 20.7 mph N/A   Clear
9:55 AM 70.9 °F 45.3 °F 40% 29.95 in 10.0 mi South 18.4 mph - N/A   Clear
10:15 AM 72.7 °F 40.8 °F 32% 29.95 in 10.0 mi SSW 23.0 mph 31.1 mph N/A   Clear
10:35 AM 73.4 °F 39.2 °F 29% 29.95 in 10.0 mi SSW 23.0 mph 28.8 mph N/A   Clear
10:55 AM 74.3 °F 38.8 °F 28% 29.95 in 10.0 mi SSW 20.7 mph 32.2 mph N/A   Clear
11:15 AM 75.0 °F 37.9 °F 26% 29.95 in 10.0 mi SSW 28.8 mph 35.7 mph N/A   Scattered Clouds
11:35 AM 74.5 °F 38.1 °F 27% 29.94 in 10.0 mi SSW 20.7 mph 36.8 mph N/A Thunderstorm Scattered Clouds
11:55 AM 76.3 °F 37.9 °F 25% 29.94 in 10.0 mi SSW 26.5 mph 41.4 mph N/A   Scattered Clouds
12:15 PM 76.1 °F 38.5 °F 26% 29.93 in 10.0 mi SSW 25.3 mph 34.5 mph N/A   Scattered Clouds
12:35 PM 76.1 °F 35.4 °F 23% 29.93 in 10.0 mi SW 21.9 mph 32.2 mph N/A   Mostly Cloudy
12:55 PM 77.0 °F 34.9 °F 22% 29.92 in 10.0 mi SW 27.6 mph 38.0 mph N/A   Scattered Clouds
1:15 PM 78.1 °F 32.5 °F 19% 29.91 in 10.0 mi SW 36.8 mph 44.9 mph N/A   Scattered Clouds
1:35 PM 78.8 °F 31.8 °F 18% 29.89 in 10.0 mi SW 34.5 mph 44.9 mph N/A   Scattered Clouds
1:55 PM 78.1 °F 32.2 °F 19% 29.88 in 5.0 mi SW 39.1 mph 51.8 mph N/A   Haze
2:15 PM 78.1 °F 32.5 °F 19% 29.87 in 7.0 mi SW 36.8 mph 48.3 mph N/A   Mostly Cloudy
2:35 PM 78.8 °F 33.8 °F 20% 29.88 in 10.0 mi WSW 33.4 mph 47.2 mph N/A   Mostly Cloudy
2:55 PM 76.6 °F 34.5 °F 22% 29.87 in 10.0 mi SW 32.2 mph 40.3 mph N/A   Mostly Cloudy
3:15 PM 77.0 °F 33.8 °F 21% 29.87 in 10.0 mi WSW 23.0 mph 33.4 mph N/A   Overcast
3:35 PM 76.3 °F 34.7 °F 22% 29.88 in 10.0 mi WSW 24.2 mph 38.0 mph N/A   Overcast
3:55 PM 74.1 °F 39.4 °F 28% 29.88 in 10.0 mi West 18.4 mph 27.6 mph N/A   Overcast
4:15 PM 74.7 °F 39.6 °F 28% 29.88 in 10.0 mi West 19.6 mph 28.8 mph N/A   Overcast
4:35 PM 73.4 °F 40.5 °F 30% 29.88 in 10.0 mi West 15.0 mph 25.3 mph N/A   Mostly Cloudy
4:55 PM 75.4 °F 39.0 °F 27% 29.88 in 10.0 mi West 12.7 mph 17.3 mph N/A   Mostly Cloudy
5:15 PM 75.0 °F 37.9 °F 26% 29.88 in 10.0 mi West 16.1 mph 21.9 mph N/A   Overcast
5:35 PM 75.2 °F 36.3 °F 24% 29.88 in 10.0 mi West 9.2 mph 18.4 mph N/A   Overcast
5:55 PM 75.2 °F 32.0 °F 21% 29.88 in 10.0 mi WSW 19.6 mph 27.6 mph N/A   Overcast
6:15 PM 74.7 °F 30.9 °F 20% 29.88 in 10.0 mi WSW 21.9 mph 29.9 mph N/A   Mostly Cloudy
6:35 PM 71.8 °F 31.5 °F 23% 29.90 in 10.0 mi WNW 19.6 mph 29.9 mph N/A   Mostly Cloudy
6:55 PM 69.1 °F 30.9 °F 24% 29.90 in 10.0 mi West 18.4 mph 27.6 mph N/A   Scattered Clouds
7:15 PM 67.3 °F 31.1 °F 26% 29.92 in 10.0 mi WNW 12.7 mph 20.7 mph N/A   Clear
7:35 PM 65.5 °F 31.1 °F 28% 29.93 in 10.0 mi WNW 13.8 mph 19.6 mph N/A   Clear
7:55 PM 64.2 °F 31.1 °F 29% 29.95 in 10.0 mi WNW 8.1 mph 17.3 mph N/A   Clear
8:15 PM 62.4 °F 31.6 °F 31% 29.95 in 10.0 mi WNW 8.1 mph - N/A   Clear
8:35 PM 61.0 °F 31.6 °F 33% 29.96 in 10.0 mi WNW 8.1 mph - N/A   Clear
8:55 PM 60.8 °F 31.6 °F 33% 29.97 in 10.0 mi West 10.4 mph - N/A   Clear
9:15 PM 60.4 °F 31.5 °F 34% 29.98 in 10.0 mi WNW 9.2 mph - N/A   Clear
9:35 PM 59.2 °F 31.8 °F 36% 29.99 in 10.0 mi WNW 9.2 mph - N/A   Clear
9:55 PM 59.4 °F 31.8 °F 35% 29.98 in 10.0 mi WNW 12.7 mph - N/A   Clear
10:15 PM 59.0 °F 32.0 °F 36% 29.99 in 10.0 mi WNW 8.1 mph - N/A   Clear
10:35 PM 56.1 °F 32.4 °F 41% 30.00 in 10.0 mi WNW 4.6 mph - N/A   Clear
10:55 PM 54.5 °F 32.9 °F 44% 29.99 in 10.0 mi West 11.5 mph - N/A   Clear
11:15 PM 56.1 °F 32.2 °F 40% 29.99 in 10.0 mi WNW 5.8 mph - N/A   Clear
11:35 PM 52.7 °F 32.5 °F 46% 30.00 in 10.0 mi NW 5.8 mph - N/A   Clear
11:55 PM 50.9 °F 32.9 °F 50% 30.00 in 10.0 mi WNW 5.8 mph - N/A   Clear